Location: Brivio
(45.7333°N, 9.4500°E)
Time: 01:29:48
(UTC+00:00)

N. Korean satellite - Pass Details

Date: 13 December 2019
Orbit: 454 x 507 km, 97.2° (Epoch: 23 January)

Event Time Altitude Azimuth Distance (km) Brightness Sun altitude
Rises 17:28:34 0° 210° (SSW) 2,599 10.9 -18.4°
Reaches altitude 10° 17:31:29 10° 236° (SW) 1,717 10.4 -18.9°
Maximum altitude 17:33:31 14° 269° (W) 1,473 10.0 -19.2°
Drops below altitude 10° 17:35:33 10° 303° (WNW) 1,715 9.9 -19.6°
Sets 17:38:28 0° 329° (NNW) 2,596 10.5 -20.1°
